Regional Weather Roundup
Issued by NWS Wakefield, VA

Home | Current Version | Previous Version | Text Only | Print | Product List | Glossary On
Versions: 1 2 3 4 5 6 7 8 9 10 11 12 13 14 15 16 17 18 19 20 21 22 23 24 25 26 27 28 29 30 31 32 33 34 35 36 37 38 39 40 41 42 43 44 45 46 47 48 49 50
962
ASUS41 KAKQ 181115
RWRAKQ

REGIONAL WEATHER ROUNDUP
NATIONAL WEATHER SERVICE WAKEFIELD VA
700 AM EDT WED OCT 18 2017

Note: "fair" indicates few or no clouds below 12,000 feet with no
significant weather and/or obstructions to visibility. * = Denotes
station may not report precipitation (e.g., rain,snow,etc.),
thunder or fog.

VAZ042-051-052>054-056-181200-
NORTHERN VIRGINIA

CITY           SKY/WX    TMP DP  RH WIND       PRES   REMARKS
WASH NATIONAL  CLEAR     46  40  79 SW3       30.38R
DULLES         CLEAR     36  36 100 CALM      30.37R
FORT BELVOIR   CLEAR     38  37  96 CALM      30.37R
QUANTICO       CLEAR     42  41  96 NW3       30.38R
FREDERICKSBRG* CLEAR     37  37 100 CALM      30.37R
STAFFORD*      CLEAR     32  32 100 CALM      30.41R
WARRENTON      CLEAR     33  31  93 CALM      30.37R
CULPEPER*      CLEAR     33  32  94 CALM      30.38R
MANASSAS*      PTCLDY    36  35  96 CALM      30.38R
LEESBURG*      CLEAR     37  37 100 CALM      30.37R
WINCHESTER     CLEAR     36  34  93 CALM      30.36R
FRONT ROYAL*   SUNNY     39  36  87 CALM      30.36R
LURAY*         SUNNY     37  37 100 CALM      30.37R
$$

VAZ048-049-060>072-079>083-181200-
CENTRAL AND SOUTH CENTRAL VIRGINIA

CITY           SKY/WX    TMP DP  RH WIND       PRES   REMARKS
RICHMOND       CLEAR     40  39  97 CALM      30.37R
CHESTERFIELD*  NOT AVBL
PETERSBURG*    CLEAR    N/A N/A N/A CALM      30.37S
HANOVER        CLEAR     37  36  96 CALM      30.38R
TAPPAHANNOCK*  CLEAR    N/A N/A N/A CALM      30.38R
QUINTON*       FAIR      37  37 100 CALM      30.36S
CHARLOTTSVILLE CLEAR     37  35  92 CALM      30.35S
GORDONSVILLE*  SUNNY     34  34 100 CALM      30.36R
ORANGE*        CLEAR     34  34 100 CALM      30.36R
LOUISA*        CLEAR     30  30 100 CALM      30.36R
BUMPASS*       FAIR      36  36 100 CALM      30.36R
FARMVILLE*     CLEAR     33  33 100 CALM      30.36R
CREWE*         FAIR      33  33 100 CALM      30.37R
FORT PICKETT*  FAIR      38  38 100 CALM      30.37R
CHASE CITY*    FAIR      36  36 100 CALM      30.37R
CLARKSVILLE*   FAIR      36  36 100 CALM      30.37R
SOUTH HILL*    CLEAR     36  36 100 CALM      30.42R
LAWRENCEVILLE* FAIR      34  33  96 CALM      30.36R
EMPORIA*       CLEAR     32  32 100 CALM      30.38R
$$

VAZ088>098-181200-
SOUTHEAST VIRGINIA

CITY           SKY/WX    TMP DP  RH WIND       PRES   REMARKS
NORFOLK        CLEAR     48  46  93 CALM      30.35R
VIRGINIA BEACH PTCLDY    49  44  83 CALM      30.34R
NORFOLK NAVAL  CLEAR     46  44  93 CALM      30.36R
WEST POINT*    MOCLDY    38  38 100 CALM      30.38S VSB 1/2
SALUDA*        FAIR      39  39 100 CALM      30.36S
NEWPORT NEWS   CLEAR     42  40  92 CALM      30.36R
LANGLEY AFB    CLEAR     47  45  94 CALM      30.35S
FORT EUSTIS    CLEAR     44  40  88 CALM      30.33S
WILLIAMSBURG*  CLEAR     43  43 100 CALM      30.37S
HR EXEC AP*    NOT AVBL
FRANKLIN*      PTCLDY    35  34  96 CALM      30.37R
US460-WAKEFLD  CLEAR     36  35  96 CALM      30.36S
$$

VAZ020-022-025-037-045-181200-
WEST CENTRAL AND SOUTHWEST VIRGINIA

CITY           SKY/WX    TMP DP  RH WIND       PRES   REMARKS
STAUNTON*      CLEAR     30  29  95 CALM      30.39R
WAYNESBORO*    SUNNY     34  34  99 CALM      30.36S
HOT SPRINGS VA CLEAR     51  15  24 CALM      30.36R
LYNCHBURG      CLEAR     36  36 100 CALM      30.36R
DANVILLE       CLEAR     35  35 100 CALM      30.37R
SOUTH BOSTON*  FAIR      32  31  97 CALM      30.37R
MARTINSVILLE   CLEAR     33  32  98 CALM      30.39R
ROANOKE        CLEAR     40  38  93 CALM      30.38R
BLACKSBURG     CLEAR     35  35 100 CALM      30.39S
DUBLIN*        CLEAR     36  36  99 CALM      30.37S
MARION*        CLOUDY    36  33  90 E3        30.37S
HILLSVILLE*    CLEAR     38  34  87 CALM      30.34S
RICHLANDS*     FAIR      43  35  74 NE6       30.33S
WISE*          CLEAR     45  37  76 CALM      30.34R
ABINGDON*      CLOUDY    44  39  83 E3        30.33R
$$

MDZ021>025-VAZ099-100-181200-
SOUTHERN MARYLAND AND THE DELMARVA PENINSULA

CITY           SKY/WX    TMP DP  RH WIND       PRES   REMARKS
PATUXENT RIVER CLEAR     41  30  65 W3        30.37R
BAY BRIDGE APT CLEAR     52  45  76 SW3       30.36R
LEONARDTOWN    NOT AVBL
DOVER          CLEAR     43  39  87 CALM      30.35R
GEORGETOWN     CLEAR     38  36  92 CALM      30.37R
EASTON         NOT AVBL
CAMBRIDGE      CLEAR     39  37  93 CALM      30.37R
SALISBURY      CLEAR     35  34  96 CALM      30.36R
OCEAN CITY     CLEAR     38  37  97 CALM      30.36S
WALLOPS ISLAND CLEAR     40  40 100 CALM      30.37R
ACCOMACK*      CLEAR     38  37  99 CALM      30.36S
$$

NCZ012>017-030>032-181200-
NORTH CENTRAL AND EASTERN NORTH CAROLINA

CITY           SKY/WX    TMP DP  RH WIND       PRES   REMARKS
ROANOKE RAPIDS FAIR      37  37 100 CALM      30.36R FOG
RALEIGH        CLEAR     39  39 100 CALM      30.36R
ELIZABETH CITY CLEAR     52  49  89 N12       30.34R
AHOSKIE*       CLEAR     38  38 100 CALM      30.36R
EDENTON*       NOT AVBL
CURRITUCK*     CLEAR     47  46  95 CALM      30.35R
KILL DEVIL HLS PTCLDY    59  48  68 NE5       30.31R
MANTEO         MOCLDY   N/A N/A N/A NE8       30.32R
CAPE HATTERAS  CLEAR     61  53  75 NE7       30.29R
TARBORO*       NOT AVBL
GOLDSBORO      CLEAR     43  40  89 CALM      30.33R
WASHINGTON     PTCLDY    45  43  93 N3        30.34R
GREENVILLE     CLEAR     41  39  93 CALM      30.35R
NEW BERN       PTCLDY    50  48  93 N8        30.33R
WILMINGTON     PTCLDY    49  46  90 NE7       30.31R
$$

VAZ048-181200-
ELSEWHERE

CITY           SKY/WX    TMP DP  RH WIND       PRES   REMARKS
HARRISBURG PA  CLEAR     43  41  93 CALM      30.34R
BALTIMORE      CLEAR     40  40 100 CALM      30.35R
ANNAPOLIS      CLEAR     45  44  97 CALM      30.36R
ANDREWS AFB    CLEAR     40  39  94 S3        30.35R
PHILADELPHIA   CLEAR     48  42  80 W5        30.35R
HENDERSON NC   CLEAR     35  34  96 CALM      30.36R
GREENSBORO     CLEAR     41  39  93 CALM      30.35R
ROCKY MOUNT    CLEAR     41  40  96 CALM      30.35R
$$

VAZ100-181200-
MARINE

STATION/POSITION TIME  TEMP    WIND        PRES    WAVE   SWELL
                       AIR SEA DIR/SP/G            HT/PER HT/PER
                 (UTC) (F)     (DEG/KT/KT) (MB)    (FT/S) (FT/S)
BRANDYWINE LGT   1042   57     270/ 10/ 12 1027.9R
CAPE MAY NJ      1048   56 64  300/  4/  8 1027.3R
LEWES DE         1048   46 63  220/  6/  8 1027.8R
15NM E FENWICK I 1050   59 67  300/  6/  8 1028.0R   3/10   2/10
OCEAN-CITY-INLET 1048   50 65  310/  4/  4 1028.2R
WACHAPREAGUE VA  1048   42 62   CALM  /  2 1027.9R
THOMAS POINT MD  1100   52 67  270/  7/  8   N/A
GOOSES REEF MD   1050   55     290/  8/ 10 1028.4R
COVE POINT MD    1048   52     280/  6/  8 1028.8R
SOLOMONS ISLAND  1042   51 70  280/  5/  7 1028.0R
BISHOPS HEAD MD  1048   56 61  350/  2/  2 1028.2R
PINEY POINT MD   1048          300/  7/  8   N/A
POTOMAC MD       1050   57     260/  6/  8 1027.6R
CAMBRIDGE MD     1048   45 66              1028.9R
LEWISETTA VA     1048   49 64  280/  5/  6 1028.2R
RAPPAHANNOCK LGT 1048           70/  3/  5 1028.5R
STINGRAY PT      1050   57     350/  8/ 10 1028.1R
YORK RVR RNG VA  1048   56     340/  8/ 10 1028.2R
YORKTOWN VA      1048   54 70  340/  7/  8 1027.6R
JAMESTOWN VA     1050          360/  4/  6   N/A
DOMINION TERM VA 1048   53      50/  2/  4 1027.8R
KIPTOPEKE VA     1048      66   40/  5/  6   N/A
CAPE HENRY VA    1048   58      20/ 12/ 14   N/A
WILLOUBY STN VA  1042   56     350/  7/  8 1027.5R
S CRANEY ISL VA  1048   58      20/  7/  9 1027.3S
CAPE HENRY BUOY  1030      70                N/A     3/ 6   2/11
1ST LANDING BUOY 1050   58                 1027.5R
CAPE CHARLES BUO 1051      70                N/A     3/10   2/11
64NM E OF VA BCH 1050   62 67   40/ 12/ 16 1027.0R   4/ 8   3/ 8
DUCK PIER NC     1048   61 68   40/ 12/ 15 1026.5R
44100 DUCK FRF   1035      71                N/A     4/ 8   2/11
44056 DUCK FRF   1030      70                N/A     4/10   2/11
OREGON INLET NC  1042   62 64   30/ 11/ 15 1026.2R
HATTERAS NC      1048   62 67   40/ 12/ 16 1025.5R
DIAMOND SHLS NC  1050   68 81   20/ 19/ 23 1024.2R   7/ 9   5/ 9
CAPE LOOKOUT NC  1100   59      10/ 16/ 20 1025.0R
$$




USA.gov is the U.S. government's official web portal to all federal, state and local government web resources and services.